TVF85AQ LFRS-LGSR

Flight info

Callsign TVF85AQ
Flight time 3h 11m
Altitude 25000
Route LUGEN UM184 TUPAR DCT DIDRU/N0454F350 DCT ADATU DCT LERGA DCT TOZOT DCT OTROT DCT RETNO DCT KOLON DCT RAPUR DCT RATAP DCT BTA DCT DOKAR DCT SUNEV DCT VELAD/N0444F370 DCT VEXUV DCT ULKEN DCT RUTOM DCT TRL UM601 PEXAN
Aircraft B738/M-SDE2E3FGHIRWXY/LB1

Departure

Time 2026-05-05 15:56
Airport Nantes Atlantique Airport (LFRS)

Arrival

Time 2026-05-05 19:07
Airport Santorini International Airport (LGSR)
Time Latitude Longitude Altitude Speed Heading
2026-05-05 15:23 47.15896 -1.60260 96 ft 0 kts 117°
2026-05-05 15:46 47.15899 -1.60268 96 ft 2 kts 116°
2026-05-05 15:46 47.15906 -1.60290 95 ft 2 kts 117°
2026-05-05 15:47 47.15914 -1.60311 93 ft 2 kts 118°
2026-05-05 15:47 47.15919 -1.60326 94 ft 2 kts 118°
2026-05-05 15:47 47.15937 -1.60335 93 ft 2 kts 205°
2026-05-05 15:47 47.15950 -1.60326 93 ft 1 kts 207°
2026-05-05 15:48 47.15953 -1.60324 93 ft 0 kts 206°
2026-05-05 15:51 47.15945 -1.60329 92 ft 4 kts 205°
2026-05-05 15:51 47.15903 -1.60360 93 ft 9 kts 207°
2026-05-05 15:51 47.15840 -1.60407 95 ft 12 kts 207°
2026-05-05 15:51 47.15753 -1.60475 97 ft 17 kts 207°
2026-05-05 15:52 47.15637 -1.60563 100 ft 20 kts 207°
2026-05-05 15:52 47.15510 -1.60659 98 ft 21 kts 207°
2026-05-05 15:52 47.15377 -1.60760 96 ft 21 kts 207°
2026-05-05 15:52 47.15248 -1.60859 97 ft 21 kts 208°
2026-05-05 15:53 47.15121 -1.60956 97 ft 21 kts 207°
2026-05-05 15:53 47.14978 -1.61065 97 ft 25 kts 207°
2026-05-05 15:53 47.14828 -1.61178 96 ft 24 kts 208°
2026-05-05 15:53 47.14685 -1.61287 95 ft 23 kts 207°
2026-05-05 15:54 47.14539 -1.61399 90 ft 24 kts 207°
2026-05-05 15:54 47.14395 -1.61507 87 ft 23 kts 207°
2026-05-05 15:54 47.14272 -1.61601 85 ft 15 kts 207°
2026-05-05 15:54 47.14190 -1.61666 83 ft 13 kts 215°
2026-05-05 15:55 47.14149 -1.61779 73 ft 13 kts 250°
2026-05-05 15:55 47.14149 -1.61896 84 ft 9 kts 296°
2026-05-05 15:55 47.14176 -1.61940 82 ft 4 kts
2026-05-05 15:55 47.14195 -1.61928 80 ft 3 kts 26°
2026-05-05 15:56 47.14282 -1.61862 84 ft 41 kts 27°
2026-05-05 15:56 47.14746 -1.61510 96 ft 108 kts 27°
2026-05-05 15:56 47.15596 -1.60878 109 ft 163 kts 24°
2026-05-05 15:56 47.16635 -1.60145 785 ft 165 kts 22°
2026-05-05 15:57 47.17567 -1.59103 1538 ft 178 kts 53°
2026-05-05 15:57 47.17882 -1.57246 2047 ft 207 kts 92°
2026-05-05 15:57 47.17268 -1.55231 2282 ft 237 kts 130°
2026-05-05 15:57 47.15834 -1.53897 2683 ft 255 kts 162°
2026-05-05 15:58 47.14110 -1.53237 3303 ft 259 kts 166°
2026-05-05 15:58 47.12325 -1.52447 3756 ft 275 kts 159°
2026-05-05 15:58 47.10543 -1.51394 4632 ft 277 kts 158°
2026-05-05 15:58 47.08764 -1.50275 5532 ft 278 kts 158°
2026-05-05 15:59 47.06988 -1.49105 6435 ft 283 kts 152°
2026-05-05 15:59 47.05409 -1.47332 7190 ft 290 kts 139°
2026-05-05 15:59 47.03931 -1.45362 8007 ft 290 kts 138°
2026-05-05 15:59 47.02436 -1.43350 8763 ft 293 kts 138°
2026-05-05 16:00 47.00918 -1.41319 9483 ft 297 kts 139°
2026-05-05 16:00 46.99375 -1.39272 10181 ft 301 kts 139°
2026-05-05 16:00 46.97796 -1.37194 10491 ft 320 kts 139°
2026-05-05 16:00 46.96077 -1.34944 10670 ft 342 kts 139°
2026-05-05 16:01 46.94253 -1.32563 10993 ft 358 kts 139°
2026-05-05 16:01 46.92371 -1.30112 11572 ft 365 kts 139°
2026-05-05 16:01 46.90468 -1.27636 12344 ft 366 kts 139°
2026-05-05 16:01 46.88557 -1.25153 13132 ft 367 kts 139°
2026-05-05 16:02 46.86640 -1.22667 13857 ft 370 kts 139°
2026-05-05 16:02 46.84704 -1.20158 14497 ft 373 kts 139°
2026-05-05 16:02 46.82758 -1.17640 15141 ft 375 kts 139°
2026-05-05 16:02 46.80819 -1.15129 15774 ft 377 kts 139°
2026-05-05 16:03 46.78847 -1.12575 16419 ft 380 kts 139°
2026-05-05 16:03 46.76865 -1.10009 17048 ft 382 kts 139°
2026-05-05 16:03 46.74865 -1.07423 17677 ft 385 kts 139°
2026-05-05 16:03 46.72846 -1.04815 18280 ft 388 kts 139°
2026-05-05 16:04 46.70820 -1.02201 18827 ft 390 kts 139°
2026-05-05 16:04 46.68782 -0.99573 19384 ft 391 kts 138°
2026-05-05 16:04 46.66746 -0.96951 19972 ft 392 kts 138°
2026-05-05 16:04 46.64693 -0.94309 20517 ft 394 kts 138°
2026-05-05 16:05 46.62632 -0.91659 21067 ft 395 kts 138°
2026-05-05 16:05 46.60591 -0.89040 21600 ft 397 kts 138°
2026-05-05 16:05 46.58516 -0.86380 22124 ft 398 kts 137°
2026-05-05 16:05 46.56426 -0.83695 22631 ft 401 kts 137°
2026-05-05 16:06 46.54337 -0.81003 23101 ft 403 kts 137°
2026-05-05 16:06 46.52233 -0.78290 23552 ft 406 kts 137°
2026-05-05 16:06 46.50118 -0.75566 23932 ft 408 kts 137°
2026-05-05 16:06 46.47983 -0.72821 24308 ft 410 kts 137°
2026-05-05 16:07 46.45837 -0.70067 24672 ft 413 kts 137°
2026-05-05 16:07 46.43777 -0.67172 25026 ft 414 kts 130°
2026-05-05 16:07 46.42024 -0.63856 25417 ft 414 kts 121°
2026-05-05 16:07 46.40638 -0.60194 25783 ft 415 kts 116°
2026-05-05 16:08 46.39335 -0.56443 26132 ft 417 kts 115°
2026-05-05 16:08 46.38036 -0.52667 26471 ft 419 kts 116°
2026-05-05 16:08 46.36726 -0.48885 26822 ft 421 kts 116°
2026-05-05 16:08 46.35402 -0.45092 27154 ft 423 kts 116°
2026-05-05 16:09 46.34080 -0.41334 27490 ft 425 kts 116°
2026-05-05 16:09 46.32730 -0.37518 27783 ft 427 kts 116°
2026-05-05 16:09 46.31367 -0.33680 28087 ft 429 kts 116°
2026-05-05 16:09 46.29996 -0.29831 28376 ft 431 kts 116°
2026-05-05 16:10 46.28616 -0.25959 28658 ft 434 kts 116°
2026-05-05 16:10 46.27225 -0.22061 28905 ft 436 kts 117°
2026-05-05 16:10 46.25827 -0.18151 29164 ft 439 kts 117°
2026-05-05 16:10 46.24421 -0.14221 29492 ft 439 kts 117°
2026-05-05 16:11 46.23041 -0.10370 29911 ft 437 kts 117°
2026-05-05 16:11 46.18840 0.01325 30728 ft 439 kts 117°
2026-05-05 16:12 46.17621 0.05371 30954 ft 441 kts 109°
2026-05-05 16:12 46.15786 0.13822 31441 ft 443 kts 108°
2026-05-05 16:13 46.13071 0.26610 32159 ft 445 kts 109°
2026-05-05 16:13 46.12459 0.29446 32318 ft 446 kts 109°
2026-05-05 16:13 46.11531 0.33715 32555 ft 446 kts 109°
2026-05-05 16:14 46.09659 0.42250 33076 ft 446 kts 110°
2026-05-05 16:14 46.07780 0.50765 33628 ft 445 kts 110°
2026-05-05 16:15 46.05904 0.59233 34070 ft 446 kts 110°
2026-05-05 16:15 46.04006 0.67769 34413 ft 447 kts 110°
2026-05-05 16:16 46.02112 0.76253 34759 ft 448 kts 110°
2026-05-05 16:16 46.00193 0.84815 34896 ft 452 kts 111°
2026-05-05 16:17 45.97294 0.97691 34907 ft 449 kts 111°
2026-05-05 16:18 45.94404 1.10448 34900 ft 445 kts 111°
2026-05-05 16:19 45.91529 1.23060 34919 ft 444 kts 111°
2026-05-05 16:19 45.88614 1.35768 34909 ft 447 kts 111°
2026-05-05 16:20 45.84703 1.52709 34906 ft 449 kts 111°
2026-05-05 16:22 45.79733 1.74048 34914 ft 452 kts 112°
2026-05-05 16:23 45.75703 1.91202 34906 ft 455 kts 112°
2026-05-05 16:23 45.72668 2.04031 34904 ft 456 kts 112°
2026-05-05 16:24 45.70624 2.12632 34893 ft 456 kts 112°
2026-05-05 16:25 45.67548 2.25512 34899 ft 456 kts 112°
2026-05-05 16:25 45.64456 2.38382 34887 ft 456 kts 112°
2026-05-05 16:26 45.60323 2.55469 34888 ft 456 kts 112°
2026-05-05 16:27 45.58242 2.64027 34879 ft 456 kts 112°
2026-05-05 16:27 45.56155 2.72579 34886 ft 456 kts 112°
2026-05-05 16:28 45.54060 2.81130 34882 ft 456 kts 113°
2026-05-05 16:28 45.51745 2.89538 34882 ft 454 kts 117°
2026-05-05 16:29 45.49219 2.97796 34879 ft 455 kts 117°
2026-05-05 16:29 45.46689 3.06069 34879 ft 456 kts 117°
2026-05-05 16:30 45.44190 3.14331 34870 ft 457 kts 117°
2026-05-05 16:30 45.41677 3.22662 34870 ft 458 kts 117°
2026-05-05 16:31 45.39154 3.31002 34866 ft 460 kts 118°
2026-05-05 16:31 45.36617 3.39356 34875 ft 461 kts 118°
2026-05-05 16:32 45.34065 3.47732 34874 ft 461 kts 118°
2026-05-05 16:32 45.31503 3.56113 34870 ft 462 kts 118°
2026-05-05 16:33 45.28950 3.64439 34874 ft 463 kts 118°
2026-05-05 16:33 45.26374 3.72814 34875 ft 462 kts 119°
2026-05-05 16:34 45.24244 3.81482 34877 ft 467 kts 110°
2026-05-05 16:34 45.22535 3.90388 34879 ft 468 kts 110°
2026-05-05 16:35 45.20778 3.99269 34877 ft 467 kts 111°
2026-05-05 16:35 45.18976 4.08077 34878 ft 467 kts 111°
2026-05-05 16:36 45.17153 4.16918 34869 ft 467 kts 112°
2026-05-05 16:36 45.15321 4.25765 34874 ft 468 kts 112°
2026-05-05 16:37 45.13484 4.34616 34871 ft 469 kts 112°
2026-05-05 16:37 45.11374 4.43307 34872 ft 462 kts 123°
2026-05-05 16:38 45.07860 4.50641 34886 ft 448 kts 137°
2026-05-05 16:38 45.03730 4.57265 34877 ft 449 kts 138°
2026-05-05 16:39 44.99580 4.63912 34878 ft 452 kts 138°
2026-05-05 16:39 44.95431 4.70619 34887 ft 454 kts 138°
2026-05-05 16:40 44.91291 4.77333 34877 ft 457 kts 138°
2026-05-05 16:40 44.87106 4.84111 34876 ft 458 kts 138°
2026-05-05 16:41 44.82917 4.90879 34880 ft 457 kts 138°
2026-05-05 16:41 44.78740 4.97609 34868 ft 455 kts 138°
2026-05-05 16:42 44.74614 5.04241 34875 ft 451 kts 138°
2026-05-05 16:42 44.70486 5.10858 34878 ft 449 kts 138°
2026-05-05 16:43 44.66370 5.17440 34873 ft 446 kts 138°
2026-05-05 16:43 44.62272 5.23976 34890 ft 445 kts 138°
2026-05-05 16:44 44.58197 5.30460 34888 ft 446 kts 138°
2026-05-05 16:44 44.54078 5.37000 34882 ft 448 kts 138°
2026-05-05 16:45 44.49934 5.43565 34877 ft 450 kts 138°
2026-05-05 16:45 44.45772 5.50148 34889 ft 452 kts 138°
2026-05-05 16:46 44.41586 5.56753 34888 ft 454 kts 138°
2026-05-05 16:46 44.37419 5.63432 34892 ft 459 kts 134°
2026-05-05 16:47 44.33786 5.70728 35028 ft 459 kts 130°
2026-05-05 16:47 44.30268 5.78179 35285 ft 458 kts 130°
2026-05-05 16:48 44.28500 5.81888 35458 ft 459 kts 130°
2026-05-05 16:48 44.26722 5.85581 35622 ft 459 kts 130°
2026-05-05 16:48 44.24931 5.89271 35784 ft 459 kts 130°
2026-05-05 16:48 44.23135 5.92953 35961 ft 459 kts 130°
2026-05-05 16:49 44.21337 5.96627 36136 ft 459 kts 130°
2026-05-05 16:49 44.19536 6.00300 36310 ft 459 kts 130°
2026-05-05 16:49 44.17728 6.03982 36486 ft 459 kts 130°
2026-05-05 16:49 44.15949 6.07603 36657 ft 459 kts 130°
2026-05-05 16:50 44.14140 6.11280 36810 ft 459 kts 130°
2026-05-05 16:50 44.12332 6.14951 36898 ft 460 kts 130°
2026-05-05 16:50 44.08677 6.22353 36916 ft 467 kts 130°
2026-05-05 16:51 44.05002 6.29781 36897 ft 469 kts 130°
2026-05-05 16:51 44.01286 6.37278 36915 ft 472 kts 130°
2026-05-05 16:52 43.97548 6.44801 36921 ft 475 kts 131°
2026-05-05 16:52 43.93801 6.52323 36904 ft 470 kts 131°
2026-05-05 16:53 43.90109 6.59720 36915 ft 465 kts 131°
2026-05-05 16:53 43.86434 6.67050 36927 ft 466 kts 131°
2026-05-05 16:54 43.82719 6.74443 36921 ft 468 kts 131°
2026-05-05 16:54 43.78988 6.81854 36947 ft 469 kts 131°
2026-05-05 16:55 43.75263 6.89241 36942 ft 471 kts 131°
2026-05-05 16:55 43.71505 6.96686 36930 ft 473 kts 131°
2026-05-05 16:56 43.67883 7.04317 36942 ft 476 kts 129°
2026-05-05 16:56 43.64318 7.12034 36955 ft 476 kts 129°
2026-05-05 16:57 43.60761 7.19672 36957 ft 475 kts 129°
2026-05-05 16:57 43.57164 7.27321 36958 ft 475 kts 130°
2026-05-05 16:58 43.53559 7.34947 36947 ft 474 kts 130°
2026-05-05 16:58 43.49942 7.42576 36938 ft 474 kts 130°
2026-05-05 16:59 43.46329 7.50178 36931 ft 474 kts 130°
2026-05-05 16:59 43.42733 7.57727 36923 ft 474 kts 130°
2026-05-05 17:00 43.39112 7.65309 36920 ft 474 kts 130°
2026-05-05 17:00 43.35483 7.72888 36932 ft 475 kts 130°
2026-05-05 17:01 43.31834 7.80489 36924 ft 476 kts 130°
2026-05-05 17:01 43.28198 7.88043 36933 ft 477 kts 130°
2026-05-05 17:02 43.24526 7.95654 36928 ft 478 kts 130°
2026-05-05 17:02 43.20839 8.03278 36932 ft 479 kts 130°
2026-05-05 17:03 43.17772 8.09602 36928 ft 480 kts 130°
2026-05-05 17:03 43.13464 8.18464 36931 ft 481 kts 130°
2026-05-05 17:04 43.10368 8.24817 36925 ft 481 kts 130°
2026-05-05 17:04 43.06646 8.32438 36933 ft 482 kts 130°
2026-05-05 17:05 43.02913 8.40061 36945 ft 482 kts 130°
2026-05-05 17:05 42.99174 8.47675 36932 ft 483 kts 130°
2026-05-05 17:06 42.95428 8.55287 36931 ft 482 kts 130°
2026-05-05 17:06 42.91699 8.62847 36931 ft 482 kts 130°
2026-05-05 17:07 42.88066 8.70546 36936 ft 485 kts 125°
2026-05-05 17:07 42.84854 8.78684 36926 ft 486 kts 123°
2026-05-05 17:08 42.81699 8.86826 36940 ft 485 kts 123°
2026-05-05 17:08 42.78517 8.94865 36934 ft 485 kts 124°
2026-05-05 17:09 42.75289 9.02936 36944 ft 484 kts 124°
2026-05-05 17:09 42.72061 9.10992 36947 ft 484 kts 124°
2026-05-05 17:10 42.68839 9.19042 36961 ft 484 kts 124°
2026-05-05 17:10 42.65634 9.27043 36955 ft 485 kts 124°
2026-05-05 17:11 42.62388 9.35126 36969 ft 486 kts 124°
2026-05-05 17:11 42.59160 9.43138 36960 ft 487 kts 123°
2026-05-05 17:12 42.56222 9.51469 36973 ft 493 kts 114°
2026-05-05 17:12 42.53964 9.60296 36963 ft 495 kts 112°
2026-05-05 17:13 42.51684 9.69091 36967 ft 494 kts 113°
2026-05-05 17:13 42.49525 9.77914 36955 ft 498 kts 105°
2026-05-05 17:14 42.47829 9.86956 36953 ft 494 kts 115°
2026-05-05 17:14 42.46365 9.91136 36950 ft 487 kts 126°
2026-05-05 17:14 42.44556 9.95009 36971 ft 485 kts 128°
2026-05-05 17:15 42.40824 10.02620 36958 ft 485 kts 128°
2026-05-05 17:15 42.37121 10.10218 36956 ft 486 kts 128°
2026-05-05 17:16 42.33438 10.17891 36967 ft 486 kts 127°
2026-05-05 17:16 42.29753 10.25597 36957 ft 487 kts 127°
2026-05-05 17:17 42.26072 10.33276 36965 ft 487 kts 127°
2026-05-05 17:17 42.22402 10.40903 36962 ft 487 kts 127°
2026-05-05 17:18 42.18697 10.48583 36965 ft 487 kts 127°
2026-05-05 17:18 42.15013 10.56198 36976 ft 487 kts 127°
2026-05-05 17:19 42.11310 10.63834 36975 ft 487 kts 127°
2026-05-05 17:19 42.07593 10.71486 36977 ft 487 kts 127°
2026-05-05 17:20 42.03858 10.79112 36983 ft 486 kts 128°
2026-05-05 17:20 42.00041 10.86603 36982 ft 486 kts 129°
2026-05-05 17:21 41.96206 10.94037 36985 ft 486 kts 129°
2026-05-05 17:22 41.90425 11.05269 36976 ft 486 kts 128°
2026-05-05 17:22 41.86597 11.12709 36985 ft 487 kts 128°
2026-05-05 17:23 41.82726 11.20217 36987 ft 487 kts 128°
2026-05-05 17:23 41.78892 11.27634 36990 ft 487 kts 128°
2026-05-05 17:23 41.76962 11.31361 37091 ft 487 kts 129°
2026-05-05 17:24 41.75024 11.35099 37070 ft 487 kts 130°
2026-05-05 17:24 41.71135 11.42581 37006 ft 487 kts 130°
2026-05-05 17:25 41.67287 11.49972 37004 ft 486 kts 130°
2026-05-05 17:25 41.63431 11.57358 37004 ft 484 kts 130°
2026-05-05 17:26 41.59571 11.64733 37012 ft 482 kts 130°
2026-05-05 17:26 41.55744 11.72027 37016 ft 481 kts 130°
2026-05-05 17:27 41.51887 11.79360 37015 ft 481 kts 130°
2026-05-05 17:27 41.48060 11.86619 37028 ft 480 kts 130°
2026-05-05 17:28 41.44210 11.93904 37014 ft 480 kts 130°
2026-05-05 17:28 41.40351 12.01190 37036 ft 480 kts 130°
2026-05-05 17:29 41.36487 12.08466 37028 ft 481 kts 130°
2026-05-05 17:29 41.32647 12.15683 37033 ft 480 kts 130°
2026-05-05 17:30 41.28775 12.22942 37036 ft 480 kts 130°
2026-05-05 17:30 41.24898 12.30193 37042 ft 480 kts 129°
2026-05-05 17:31 41.21036 12.37398 37044 ft 481 kts 129°
2026-05-05 17:31 41.17143 12.44645 37040 ft 481 kts 129°
2026-05-05 17:32 41.13245 12.51882 37051 ft 481 kts 129°
2026-05-05 17:32 41.09367 12.59068 37048 ft 481 kts 129°
2026-05-05 17:33 41.05459 12.66292 37056 ft 481 kts 129°
2026-05-05 17:33 41.01553 12.73496 37060 ft 481 kts 129°
2026-05-05 17:34 40.97661 12.80656 37056 ft 481 kts 129°
2026-05-05 17:34 40.93744 12.87846 37056 ft 481 kts 129°
2026-05-05 17:35 40.89828 12.95017 37060 ft 480 kts 129°
2026-05-05 17:35 40.85933 13.02134 37057 ft 480 kts 129°
2026-05-05 17:36 40.82005 13.09295 37056 ft 480 kts 129°
2026-05-05 17:36 40.78084 13.16428 37061 ft 480 kts 129°
2026-05-05 17:37 40.74186 13.23505 37061 ft 479 kts 129°
2026-05-05 17:37 40.70310 13.30678 37054 ft 481 kts 123°
2026-05-05 17:38 40.67205 13.38522 37059 ft 483 kts 118°
2026-05-05 17:38 40.64246 13.46482 37069 ft 483 kts 118°
2026-05-05 17:39 40.61280 13.54366 37066 ft 483 kts 118°
2026-05-05 17:39 40.58252 13.62288 37068 ft 484 kts 119°
2026-05-05 17:40 40.55208 13.70191 37061 ft 485 kts 119°
2026-05-05 17:40 40.52155 13.78092 37066 ft 484 kts 119°
2026-05-05 17:41 40.49107 13.85964 37067 ft 484 kts 119°
2026-05-05 17:41 40.46042 13.93860 37074 ft 484 kts 119°
2026-05-05 17:42 40.42994 14.01693 37072 ft 484 kts 119°
2026-05-05 17:42 40.39936 14.09533 37075 ft 484 kts 118°
2026-05-05 17:43 40.36856 14.17405 37079 ft 484 kts 118°
2026-05-05 17:43 40.33773 14.25267 37074 ft 484 kts 118°
2026-05-05 17:44 40.30705 14.33068 37074 ft 484 kts 118°
2026-05-05 17:44 40.27609 14.40920 37073 ft 484 kts 118°
2026-05-05 17:45 40.24509 14.48764 37067 ft 484 kts 118°
2026-05-05 17:45 40.21403 14.56600 37073 ft 485 kts 118°
2026-05-05 17:46 40.18308 14.64389 37075 ft 485 kts 118°
2026-05-05 17:46 40.15181 14.72237 37070 ft 486 kts 118°
2026-05-05 17:47 40.12046 14.80084 37070 ft 486 kts 119°
2026-05-05 17:47 40.08928 14.87868 37073 ft 487 kts 119°
2026-05-05 17:48 40.05782 14.95705 37074 ft 487 kts 119°
2026-05-05 17:48 40.02625 15.03546 37077 ft 487 kts 119°
2026-05-05 17:49 39.99458 15.11392 37076 ft 488 kts 119°
2026-05-05 17:49 39.96308 15.19176 37073 ft 488 kts 119°
2026-05-05 17:50 39.93122 15.27028 37072 ft 488 kts 119°
2026-05-05 17:50 39.89962 15.34798 37077 ft 488 kts 119°
2026-05-05 17:51 39.87312 15.41296 37075 ft 488 kts 119°
2026-05-05 17:51 39.84118 15.49112 37078 ft 488 kts 119°
2026-05-05 17:52 39.80923 15.56910 37077 ft 487 kts 119°
2026-05-05 17:52 39.77744 15.64649 37072 ft 487 kts 119°
2026-05-05 17:53 39.74540 15.72430 37072 ft 487 kts 119°
2026-05-05 17:53 39.71352 15.80150 37079 ft 487 kts 119°
2026-05-05 17:54 39.68143 15.87905 37077 ft 487 kts 119°
2026-05-05 17:54 39.64922 15.95671 37078 ft 488 kts 119°
2026-05-05 17:55 39.61718 16.03377 37068 ft 489 kts 118°
2026-05-05 17:55 39.58750 16.11314 37077 ft 489 kts 115°
2026-05-05 17:56 39.55962 16.19362 37077 ft 489 kts 114°
2026-05-05 17:56 39.53167 16.27406 37083 ft 489 kts 115°
2026-05-05 17:57 39.50331 16.35436 37078 ft 490 kts 115°
2026-05-05 17:57 39.47482 16.43423 37074 ft 490 kts 115°
2026-05-05 17:58 39.44615 16.51435 37078 ft 490 kts 115°
2026-05-05 17:58 39.41765 16.59380 37073 ft 490 kts 115°
2026-05-05 17:59 39.38889 16.67380 37067 ft 490 kts 115°
2026-05-05 17:59 39.36010 16.75369 37071 ft 488 kts 115°
2026-05-05 18:00 39.33153 16.83272 37069 ft 487 kts 115°
2026-05-05 18:00 39.30285 16.91186 37068 ft 485 kts 115°
2026-05-05 18:01 39.27419 16.99073 37066 ft 484 kts 116°
2026-05-05 18:01 39.24557 17.06927 37063 ft 483 kts 116°
2026-05-05 18:02 39.21706 17.14732 37062 ft 482 kts 116°
2026-05-05 18:02 39.18839 17.22559 37067 ft 481 kts 116°
2026-05-05 18:03 39.15991 17.30313 37066 ft 480 kts 116°
2026-05-05 18:03 39.13125 17.38097 37071 ft 480 kts 116°
2026-05-05 18:04 39.10247 17.45894 37070 ft 481 kts 116°
2026-05-05 18:04 39.07365 17.53678 37070 ft 482 kts 116°
2026-05-05 18:05 39.04490 17.61426 37077 ft 483 kts 116°
2026-05-05 18:05 39.01582 17.69242 37081 ft 484 kts 116°
2026-05-05 18:06 38.98681 17.77018 37082 ft 485 kts 116°
2026-05-05 18:06 38.95749 17.84856 37086 ft 486 kts 116°
2026-05-05 18:07 38.92810 17.92695 37086 ft 487 kts 116°
2026-05-05 18:07 38.89873 18.00507 37089 ft 488 kts 116°
2026-05-05 18:08 38.86910 18.08367 37093 ft 488 kts 116°
2026-05-05 18:08 38.83961 18.16170 37096 ft 488 kts 116°
2026-05-05 18:09 38.80995 18.23998 37095 ft 487 kts 116°
2026-05-05 18:09 38.78021 18.31825 37100 ft 487 kts 116°
2026-05-05 18:10 38.75050 18.39625 37098 ft 486 kts 116°
2026-05-05 18:10 38.72095 18.47365 37101 ft 486 kts 116°
2026-05-05 18:11 38.69109 18.55164 37100 ft 485 kts 116°
2026-05-05 18:11 38.66147 18.62883 37105 ft 485 kts 116°
2026-05-05 18:12 38.63166 18.70630 37106 ft 485 kts 116°
2026-05-05 18:12 38.60179 18.78374 37108 ft 485 kts 116°
2026-05-05 18:13 38.57207 18.86059 37110 ft 485 kts 116°
2026-05-05 18:13 38.54206 18.93804 37113 ft 485 kts 116°
2026-05-05 18:14 38.51249 19.01556 37113 ft 485 kts 114°
2026-05-05 18:14 38.48684 19.09480 37115 ft 485 kts 111°
2026-05-05 18:15 38.46211 19.17528 37117 ft 485 kts 111°
2026-05-05 18:15 38.43818 19.25537 37116 ft 485 kts 108°
2026-05-05 18:16 38.41676 19.33709 37119 ft 486 kts 107°
2026-05-05 18:16 38.39561 19.41922 37118 ft 486 kts 108°
2026-05-05 18:17 38.37410 19.50086 37119 ft 486 kts 108°
2026-05-05 18:17 38.35236 19.58208 37122 ft 486 kts 108°
2026-05-05 18:18 38.33036 19.66370 37122 ft 486 kts 108°
2026-05-05 18:18 38.30841 19.74486 37123 ft 486 kts 108°
2026-05-05 18:19 38.28637 19.82621 37120 ft 486 kts 108°
2026-05-05 18:19 38.26423 19.90770 37124 ft 486 kts 108°
2026-05-05 18:20 38.24211 19.98882 37122 ft 486 kts 108°
2026-05-05 18:20 38.21997 20.06978 37123 ft 486 kts 108°
2026-05-05 18:21 38.19765 20.15116 37125 ft 486 kts 108°
2026-05-05 18:21 38.17531 20.23232 37128 ft 486 kts 108°
2026-05-05 18:22 38.15305 20.31297 37127 ft 486 kts 108°
2026-05-05 18:22 38.13055 20.39425 37132 ft 486 kts 108°
2026-05-05 18:23 38.10816 20.47487 37131 ft 487 kts 108°
2026-05-05 18:23 38.08555 20.55601 37130 ft 487 kts 108°
2026-05-05 18:24 38.06286 20.63721 37130 ft 487 kts 108°
2026-05-05 18:24 38.04026 20.71782 37131 ft 488 kts 108°
2026-05-05 18:25 38.01742 20.79904 37127 ft 488 kts 108°
2026-05-05 18:25 37.99454 20.88016 37110 ft 488 kts 108°
2026-05-05 18:26 37.97160 20.96123 37114 ft 489 kts 108°
2026-05-05 18:26 37.94873 21.04182 37111 ft 489 kts 108°
2026-05-05 18:27 37.92563 21.12295 37106 ft 489 kts 108°
2026-05-05 18:27 37.90246 21.20418 37103 ft 490 kts 108°
2026-05-05 18:28 37.86751 21.32608 37102 ft 491 kts 108°
2026-05-05 18:28 37.84428 21.40677 37109 ft 491 kts 108°
2026-05-05 18:29 37.82082 21.48810 37111 ft 492 kts 108°
2026-05-05 18:29 37.79729 21.56941 37116 ft 492 kts 108°
2026-05-05 18:30 37.77353 21.65060 37132 ft 492 kts 110°
2026-05-05 18:30 37.74691 21.73044 37134 ft 493 kts 112°
2026-05-05 18:31 37.71934 21.80937 37146 ft 493 kts 112°
2026-05-05 18:31 37.69187 21.88884 37134 ft 493 kts 112°
2026-05-05 18:32 37.66470 21.96835 37149 ft 493 kts 112°
2026-05-05 18:32 37.63759 22.04792 37141 ft 493 kts 112°
2026-05-05 18:33 37.61046 22.12731 37148 ft 493 kts 112°
2026-05-05 18:33 37.58324 22.20671 37130 ft 493 kts 112°
2026-05-05 18:34 37.55611 22.28557 37122 ft 493 kts 112°
2026-05-05 18:34 37.52878 22.36480 37116 ft 492 kts 112°
2026-05-05 18:35 37.50143 22.44390 37122 ft 492 kts 111°
2026-05-05 18:35 37.47398 22.52307 37112 ft 493 kts 111°
2026-05-05 18:36 37.44645 22.60227 37100 ft 494 kts 112°
2026-05-05 18:36 37.41881 22.68155 37101 ft 496 kts 111°
2026-05-05 18:37 37.40507 22.72090 36932 ft 500 kts 111°
2026-05-05 18:37 37.39100 22.76116 36483 ft 503 kts 111°
2026-05-05 18:37 37.37685 22.80157 35996 ft 504 kts 111°
2026-05-05 18:37 37.36273 22.84182 35478 ft 502 kts 110°
2026-05-05 18:38 37.34863 22.88193 34897 ft 499 kts 110°
2026-05-05 18:38 37.33462 22.92175 34334 ft 498 kts 110°
2026-05-05 18:38 37.32063 22.96147 33733 ft 497 kts 109°
2026-05-05 18:38 37.30664 23.00116 33107 ft 496 kts 109°
2026-05-05 18:39 37.29267 23.04076 32522 ft 494 kts 110°
2026-05-05 18:39 37.27888 23.07978 31946 ft 492 kts 110°
2026-05-05 18:39 37.26500 23.11899 31399 ft 490 kts 110°
2026-05-05 18:39 37.25114 23.15809 30859 ft 488 kts 110°
2026-05-05 18:40 37.23734 23.19698 30328 ft 486 kts 110°
2026-05-05 18:40 37.22823 23.22263 29950 ft 485 kts 110°
2026-05-05 18:40 37.21451 23.26124 29348 ft 483 kts 110°
2026-05-05 18:40 37.20087 23.29954 28779 ft 480 kts 110°
2026-05-05 18:41 37.18728 23.33764 28217 ft 477 kts 111°
2026-05-05 18:41 37.17373 23.37558 27669 ft 473 kts 111°
2026-05-05 18:41 37.16042 23.41283 27132 ft 470 kts 111°
2026-05-05 18:41 37.14709 23.45008 26605 ft 467 kts 111°
2026-05-05 18:42 37.13381 23.48715 26101 ft 464 kts 111°
2026-05-05 18:42 37.12065 23.52382 25677 ft 459 kts 111°
2026-05-05 18:42 37.10760 23.56015 25284 ft 453 kts 111°
2026-05-05 18:42 37.09469 23.59604 24901 ft 448 kts 111°
2026-05-05 18:43 37.08196 23.63141 24526 ft 443 kts 111°
2026-05-05 18:43 37.06932 23.66646 24153 ft 439 kts 111°
2026-05-05 18:43 37.05695 23.70077 23807 ft 436 kts 111°
2026-05-05 18:43 37.04454 23.73512 23463 ft 431 kts 111°
2026-05-05 18:44 37.03215 23.76942 23097 ft 433 kts 111°
2026-05-05 18:44 37.01970 23.80385 22729 ft 435 kts 111°
2026-05-05 18:44 37.00722 23.83831 22368 ft 434 kts 111°
2026-05-05 18:44 36.99479 23.87256 22012 ft 429 kts 111°
2026-05-05 18:45 36.98247 23.90646 21655 ft 426 kts 111°
2026-05-05 18:45 36.97023 23.94011 21303 ft 423 kts 111°
2026-05-05 18:45 36.95820 23.97315 20949 ft 420 kts 111°
2026-05-05 18:45 36.94607 24.00641 20611 ft 418 kts 111°
2026-05-05 18:46 36.93407 24.03931 20265 ft 415 kts 111°
2026-05-05 18:46 36.92211 24.07206 19925 ft 413 kts 111°
2026-05-05 18:46 36.91024 24.10454 19599 ft 410 kts 111°
2026-05-05 18:46 36.89841 24.13687 19263 ft 407 kts 111°
2026-05-05 18:47 36.88663 24.16902 18937 ft 405 kts 111°
2026-05-05 18:47 36.87491 24.20096 18612 ft 402 kts 111°
2026-05-05 18:47 36.86330 24.23259 18287 ft 400 kts 111°
2026-05-05 18:47 36.85190 24.26360 17919 ft 397 kts 112°
2026-05-05 18:48 36.84043 24.29478 17557 ft 394 kts 112°
2026-05-05 18:48 36.82901 24.32579 17195 ft 391 kts 112°
2026-05-05 18:48 36.81770 24.35648 16842 ft 387 kts 112°
2026-05-05 18:48 36.80646 24.38694 16488 ft 384 kts 112°
2026-05-05 18:49 36.79533 24.41706 16132 ft 380 kts 112°
2026-05-05 18:49 36.78431 24.44688 15787 ft 377 kts 112°
2026-05-05 18:49 36.77336 24.47648 15446 ft 374 kts 112°
2026-05-05 18:49 36.76263 24.50545 15108 ft 369 kts 112°
2026-05-05 18:50 36.75192 24.53431 14793 ft 365 kts 112°
2026-05-05 18:50 36.74132 24.56286 14500 ft 359 kts 112°
2026-05-05 18:50 36.73091 24.59088 14236 ft 352 kts 112°
2026-05-05 18:50 36.72071 24.61831 13974 ft 346 kts 112°
2026-05-05 18:51 36.71068 24.64525 13702 ft 340 kts 111°
2026-05-05 18:51 36.70080 24.67178 13431 ft 334 kts 111°
2026-05-05 18:51 36.69111 24.69776 13164 ft 328 kts 111°
2026-05-05 18:51 36.68157 24.72334 12913 ft 322 kts 111°
2026-05-05 18:52 36.67218 24.74850 12667 ft 317 kts 111°
2026-05-05 18:52 36.66299 24.77311 12439 ft 311 kts 111°
2026-05-05 18:52 36.65391 24.79738 12206 ft 306 kts 111°
2026-05-05 18:52 36.64506 24.82105 11973 ft 305 kts 111°
2026-05-05 18:53 36.63610 24.84501 11736 ft 304 kts 111°
2026-05-05 18:53 36.62718 24.86882 11492 ft 302 kts 111°
2026-05-05 18:53 36.61831 24.89248 11239 ft 300 kts 111°
2026-05-05 18:53 36.60949 24.91598 11014 ft 299 kts 111°
2026-05-05 18:54 36.60068 24.93947 10767 ft 299 kts 111°
2026-05-05 18:54 36.59196 24.96266 10523 ft 299 kts 111°
2026-05-05 18:54 36.58318 24.98601 10275 ft 297 kts 111°
2026-05-05 18:54 36.57445 25.00921 10037 ft 295 kts 111°
2026-05-05 18:55 36.56577 25.03223 9780 ft 293 kts 111°
2026-05-05 18:55 36.55714 25.05512 9513 ft 291 kts 111°
2026-05-05 18:55 36.54855 25.07790 9247 ft 289 kts 111°
2026-05-05 18:55 36.53999 25.10056 8989 ft 288 kts 111°
2026-05-05 18:56 36.53150 25.12304 8726 ft 286 kts 111°
2026-05-05 18:56 36.52306 25.14538 8473 ft 285 kts 111°
2026-05-05 18:56 36.51474 25.16737 8225 ft 284 kts 111°
2026-05-05 18:56 36.50635 25.18952 7973 ft 283 kts 111°
2026-05-05 18:57 36.49797 25.21166 7724 ft 282 kts 111°
2026-05-05 18:57 36.48961 25.23369 7483 ft 281 kts 111°
2026-05-05 18:57 36.48129 25.25563 7262 ft 279 kts 111°
2026-05-05 18:57 36.47303 25.27739 7045 ft 278 kts 111°
2026-05-05 18:58 36.46478 25.29911 6829 ft 277 kts 111°
2026-05-05 18:58 36.45656 25.32075 6616 ft 277 kts 111°
2026-05-05 18:58 36.44832 25.34241 6412 ft 277 kts 111°
2026-05-05 18:58 36.44010 25.36396 6173 ft 276 kts 111°
2026-05-05 18:59 36.43194 25.38543 5936 ft 273 kts 111°
2026-05-05 18:59 36.42398 25.40633 5718 ft 269 kts 111°
2026-05-05 18:59 36.41602 25.42720 5503 ft 266 kts 112°
2026-05-05 18:59 36.40814 25.44783 5322 ft 264 kts 112°
2026-05-05 19:00 36.40024 25.46851 5091 ft 264 kts 112°
2026-05-05 19:00 36.39212 25.48891 4914 ft 263 kts 116°
2026-05-05 19:00 36.38271 25.50820 4737 ft 258 kts 120°
2026-05-05 19:00 36.37325 25.52653 4584 ft 248 kts 120°
2026-05-05 19:01 36.36403 25.54446 4413 ft 245 kts 120°
2026-05-05 19:01 36.35496 25.56230 4259 ft 244 kts 120°
2026-05-05 19:01 36.34593 25.58017 4099 ft 244 kts 120°
2026-05-05 19:01 36.33695 25.59800 3947 ft 243 kts 120°
2026-05-05 19:02 36.32814 25.61550 3800 ft 242 kts 120°
2026-05-05 19:02 36.31818 25.63239 3623 ft 244 kts 139°
2026-05-05 19:02 36.30330 25.64146 3527 ft 237 kts 173°
2026-05-05 19:02 36.28736 25.63993 3430 ft 227 kts 204°
2026-05-05 19:03 36.27456 25.62944 3352 ft 218 kts 233°
2026-05-05 19:03 36.26737 25.61360 3263 ft 207 kts 258°
2026-05-05 19:03 36.26652 25.59667 3157 ft 189 kts 283°
2026-05-05 19:03 36.27085 25.58200 3053 ft 175 kts 302°
2026-05-05 19:04 36.27850 25.57018 2955 ft 178 kts 313°
2026-05-05 19:04 36.28678 25.55901 2739 ft 172 kts 313°
2026-05-05 19:04 36.29464 25.54844 2485 ft 165 kts 311°
2026-05-05 19:04 36.30237 25.53804 2225 ft 159 kts 313°
2026-05-05 19:05 36.31014 25.52893 1992 ft 147 kts 316°
2026-05-05 19:05 36.31790 25.52120 1737 ft 144 kts 320°
2026-05-05 19:05 36.32615 25.51457 1451 ft 141 kts 327°
2026-05-05 19:05 36.33497 25.50946 1209 ft 140 kts 333°
2026-05-05 19:06 36.34409 25.50505 954 ft 140 kts 336°
2026-05-05 19:06 36.35316 25.50075 747 ft 142 kts 336°
2026-05-05 19:06 36.36244 25.49631 569 ft 143 kts 337°
2026-05-05 19:06 36.37178 25.49205 385 ft 142 kts 337°
2026-05-05 19:07 36.38099 25.48768 209 ft 141 kts 338°
2026-05-05 19:07 36.39014 25.48341 82 ft 141 kts 338°
2026-05-05 19:07 36.39845 25.47951 97 ft 101 kts 339°
2026-05-05 19:07 36.40314 25.47731 111 ft 37 kts 339°
2026-05-05 19:08 36.40459 25.47661 116 ft 10 kts 324°
2026-05-05 19:08 36.40459 25.47590 114 ft 5 kts 249°
2026-05-05 19:08 36.40451 25.47561 116 ft 1 kts 250°
2026-05-05 19:08 36.40450 25.47559 116 ft 0 kts 250°
2026-05-05 19:09 36.40450 25.47558 116 ft 0 kts 250°
2026-05-05 19:09 36.40443 25.47534 117 ft 5 kts 251°
2026-05-05 19:10 36.40430 25.47481 117 ft 8 kts 253°
2026-05-05 19:10 36.40399 25.47433 115 ft 7 kts 187°
2026-05-05 19:10 36.40362 25.47429 116 ft 4 kts 221°
2026-05-05 19:10 36.40351 25.47400 116 ft 1 kts 251°
2026-05-05 19:11 36.40348 25.47388 116 ft 1 kts 250°
2026-05-05 19:11 36.40347 25.47385 116 ft 0 kts 250°